• în Republica Moldova
  • Lista ţărilor
  • Pe 7 zile
  • Temperatura apei
  • Hartă satelitară
  • Meteo pe hartă
  • Widget-uri
  • user-avatar
    Intrare

    Meteo pe oră la Kalgoorlie

    Astăzi, 17 Noiembrie, Sâmbătă

    Timp Temperatura Precipitaţii Vânt Presiune Umiditate
    00:00 +30°C° 0 mm 6 m/s 729 mmHg 20%
    01:00 +29°C° 0 mm 6 m/s 729 mmHg 19%
    02:00 +29°C° 0 mm 6 m/s 728 mmHg 19%
    03:00 +28°C° 0 mm 7 m/s 728 mmHg 19%
    04:00 +28°C° 0 mm 7 m/s 728 mmHg 19%
    05:00 +28°C° 0 mm 8 m/s 728 mmHg 19%
    06:00 +29°C° 0 mm 8 m/s 728 mmHg 19%
    07:00 +31°C° 0 mm 9 m/s 728 mmHg 19%
    08:00 +33°C° 0 mm 9 m/s 728 mmHg 19%
    09:00 +35°C° 0 mm 9 m/s 728 mmHg 19%
    10:00 +38°C° 0 mm 9 m/s 728 mmHg 18%
    11:00 +40°C° 0 mm 9 m/s 727 mmHg 17%
    12:00 +40°C° 0 mm 8 m/s 726 mmHg 17%
    13:00 +40°C° 0 mm 8 m/s 726 mmHg 17%
    14:00 +40°C° 0 mm 7 m/s 725 mmHg 17%
    15:00 +39°C° 0.1 mm 7 m/s 725 mmHg 19%
    16:00 +38°C° 0.1 mm 6 m/s 725 mmHg 21%
    17:00 +38°C° 0.1 mm 6 m/s 724 mmHg 22%
    18:00 +36°C° 0.1 mm 6 m/s 724 mmHg 25%
    19:00 +35°C° 0.1 mm 6 m/s 724 mmHg 27%
    20:00 +34°C° 0.1 mm 6 m/s 724 mmHg 30%
    21:00 +33°C° 0 mm 5 m/s 724 mmHg 30%
    22:00 +32°C° 0 mm 5 m/s 724 mmHg 31%
    23:00 +29°C° 0 mm 4 m/s 724 mmHg 31%

    Mâine, 18 Noiembrie, Duminică

    Timp Temperatura Precipitaţii Vânt Presiune Umiditate
    00:00 +28°C° 0 mm 5 m/s 724 mmHg 33%
    01:00 +27°C° 0 mm 5 m/s 724 mmHg 34%
    02:00 +26°C° 0 mm 6 m/s 724 mmHg 36%
    03:00 +24°C° 0 mm 6 m/s 724 mmHg 43%
    04:00 +23°C° 0 mm 6 m/s 724 mmHg 50%
    05:00 +22°C° 0 mm 6 m/s 724 mmHg 57%
    06:00 +23°C° 0 mm 6 m/s 724 mmHg 55%
    07:00 +24°C° 0 mm 6 m/s 725 mmHg 52%
    08:00 +26°C° 0 mm 6 m/s 725 mmHg 49%
    09:00 +28°C° 0 mm 6 m/s 725 mmHg 42%
    10:00 +29°C° 0 mm 5 m/s 725 mmHg 35%
    11:00 +32°C° 0 mm 5 m/s 725 mmHg 27%
    12:00 +33°C° 0 mm 5 m/s 724 mmHg 24%
    13:00 +34°C° 0 mm 6 m/s 724 mmHg 21%
    14:00 +35°C° 0 mm 6 m/s 724 mmHg 18%
    15:00 +34°C° 0 mm 7 m/s 724 mmHg 18%
    16:00 +34°C° 0 mm 7 m/s 724 mmHg 18%
    17:00 +34°C° 0 mm 8 m/s 724 mmHg 18%
    18:00 +32°C° 0 mm 7 m/s 724 mmHg 19%
    19:00 +30°C° 0 mm 7 m/s 724 mmHg 20%
    20:00 +29°C° 0 mm 6 m/s 725 mmHg 21%
    21:00 +27°C° 0 mm 6 m/s 725 mmHg 26%
    22:00 +26°C° 0 mm 6 m/s 726 mmHg 30%
    23:00 +24°C° 0 mm 6 m/s 726 mmHg 35%

    Poimâine, 19 Noiembrie, Luni

    Timp Temperatura Precipitaţii Vânt Presiune Umiditate
    00:00 +22°C° 0 mm 7 m/s 726 mmHg 44%
    01:00 +21°C° 0 mm 7 m/s 726 mmHg 53%
    02:00 +18°C° 0 mm 7 m/s 726 mmHg 62%
    03:00 +17°C° 0 mm 7 m/s 726 mmHg 65%
    04:00 +17°C° 0 mm 6 m/s 727 mmHg 68%
    05:00 +16°C° 0 mm 6 m/s 727 mmHg 70%
    06:00 +17°C° 0 mm 6 m/s 728 mmHg 68%
    07:00 +17°C° 0 mm 6 m/s 728 mmHg 66%
    08:00 +19°C° 0 mm 6 m/s 729 mmHg 64%
    09:00 +19°C° 0 mm 6 m/s 729 mmHg 61%
    10:00 +20°C° 0 mm 5 m/s 729 mmHg 58%
    11:00 +21°C° 0 mm 5 m/s 729 mmHg 54%
    12:00 +21°C° 0 mm 5 m/s 729 mmHg 51%
    13:00 +22°C° 0 mm 5 m/s 728 mmHg 48%
    14:00 +22°C° 0 mm 4 m/s 728 mmHg 45%
    15:00 +22°C° 0 mm 4 m/s 728 mmHg 43%
    16:00 +22°C° 0 mm 5 m/s 728 mmHg 41%
    17:00 +22°C° 0 mm 5 m/s 728 mmHg 40%
    18:00 +21°C° 0 mm 4 m/s 729 mmHg 40%
    19:00 +21°C° 0 mm 4 m/s 729 mmHg 40%
    20:00 +20°C° 0 mm 4 m/s 730 mmHg 40%
    21:00 +19°C° 0 mm 6 m/s 730 mmHg 43%
    22:00 +16°C° 0 mm 7 m/s 730 mmHg 46%
    23:00 +15°C° 0 mm 9 m/s 730 mmHg 49%

    20 Noiembrie, Marţi

    Timp Temperatura Precipitaţii Vânt Presiune Umiditate
    00:00 +13°C° 0 mm 8 m/s 730 mmHg 54%
    01:00 +12°C° 0 mm 8 m/s 730 mmHg 59%
    02:00 +11°C° 0 mm 7 m/s 730 mmHg 64%
    03:00 +11°C° 0 mm 7 m/s 731 mmHg 66%
    04:00 +10°C° 0 mm 6 m/s 731 mmHg 69%
    05:00 +10°C° 0 mm 6 m/s 731 mmHg 71%
    06:00 +10°C° 0 mm 6 m/s 732 mmHg 67%
    07:00 +11°C° 0 mm 6 m/s 732 mmHg 63%
    08:00 +13°C° 0 mm 5 m/s 733 mmHg 59%
    09:00 +14°C° 0 mm 5 m/s 733 mmHg 55%
    10:00 +14°C° 0 mm 5 m/s 732 mmHg 51%
    11:00 +15°C° 0 mm 5 m/s 732 mmHg 47%
    12:00 +17°C° 0 mm 5 m/s 731 mmHg 41%
    13:00 +19°C° 0 mm 5 m/s 731 mmHg 34%
    14:00 +20°C° 0 mm 5 m/s 730 mmHg 28%
    15:00 +21°C° 0 mm 5 m/s 730 mmHg 27%
    16:00 +21°C° 0 mm 6 m/s 730 mmHg 26%
    17:00 +21°C° 0 mm 6 m/s 730 mmHg 25%
    18:00 +18°C° 0 mm 7 m/s 730 mmHg 29%
    19:00 +17°C° 0 mm 8 m/s 731 mmHg 33%
    20:00 +15°C° 0 mm 8 m/s 732 mmHg 37%
    21:00 +13°C° 0 mm 8 m/s 732 mmHg 42%
    22:00 +12°C° 0 mm 8 m/s 732 mmHg 47%
    23:00 +10°C° 0 mm 8 m/s 732 mmHg 52%

    21 Noiembrie, Miercuri

    Timp Temperatura Precipitaţii Vânt Presiune Umiditate
    00:00 +10°C° 0 mm 7 m/s 732 mmHg 54%
    01:00 +9°C° 0 mm 7 m/s 732 mmHg 55%
    02:00 +9°C° 0 mm 6 m/s 731 mmHg 56%
    03:00 +9°C° 0 mm 6 m/s 731 mmHg 58%
    04:00 +8°C° 0 mm 5 m/s 731 mmHg 60%
    05:00 +8°C° 0 mm 5 m/s 731 mmHg 63%
    06:00 +9°C° 0 mm 5 m/s 731 mmHg 58%
    07:00 +11°C° 0 mm 6 m/s 731 mmHg 53%
    08:00 +13°C° 0 mm 6 m/s 732 mmHg 48%
    09:00 +15°C° 0 mm 5 m/s 731 mmHg 42%
    10:00 +16°C° 0 mm 5 m/s 731 mmHg 37%
    11:00 +19°C° 0 mm 5 m/s 730 mmHg 31%
    12:00 +20°C° 0 mm 5 m/s 730 mmHg 29%
    13:00 +21°C° 0 mm 4 m/s 729 mmHg 26%
    14:00 +23°C° 0 mm 4 m/s 728 mmHg 23%
    15:00 +23°C° 0 mm 4 m/s 728 mmHg 23%
    16:00 +23°C° 0 mm 4 m/s 728 mmHg 22%
    17:00 +25°C° 0 mm 4 m/s 727 mmHg 22%
    18:00 +23°C° 0 mm 5 m/s 728 mmHg 23%
    19:00 +22°C° 0 mm 5 m/s 728 mmHg 25%
    20:00 +21°C° 0 mm 5 m/s 728 mmHg 27%
    21:00 +20°C° 0 mm 6 m/s 728 mmHg 30%
    22:00 +20°C° 0 mm 7 m/s 728 mmHg 33%
    23:00 +18°C° 0 mm 8 m/s 728 mmHg 37%

    22 Noiembrie, Joi

    Timp Temperatura Precipitaţii Vânt Presiune Umiditate
    00:00 +17°C° 0 mm 9 m/s 727 mmHg 39%
    01:00 +16°C° 0 mm 10 m/s 726 mmHg 42%
    02:00 +14°C° 0 mm 10 m/s 724 mmHg 44%
    03:00 +14°C° 0 mm 10 m/s 724 mmHg 45%
    04:00 +14°C° 0 mm 10 m/s 724 mmHg 46%
    05:00 +14°C° 0 mm 10 m/s 724 mmHg 47%
    06:00 +16°C° 0.1 mm 11 m/s 724 mmHg 45%
    07:00 +16°C° 0.1 mm 11 m/s 724 mmHg 42%
    08:00 +17°C° 0.1 mm 12 m/s 724 mmHg 40%
    09:00 +21°C° 0 mm 12 m/s 724 mmHg 35%
    10:00 +23°C° 0 mm 13 m/s 723 mmHg 29%
    11:00 +26°C° 0 mm 13 m/s 722 mmHg 24%
    12:00 +29°C° 0 mm 13 m/s 721 mmHg 21%
    13:00 +33°C° 0 mm 13 m/s 720 mmHg 18%
    14:00 +36°C° 0 mm 14 m/s 719 mmHg 15%
    15:00 +36°C° 0 mm 13 m/s 719 mmHg 15%
    16:00 +34°C° 0 mm 13 m/s 718 mmHg 15%
    17:00 +33°C° 0 mm 13 m/s 718 mmHg 16%
    18:00 +31°C° 0 mm 12 m/s 718 mmHg 20%
    19:00 +28°C° 0 mm 11 m/s 719 mmHg 23%
    20:00 +26°C° 0 mm 10 m/s 720 mmHg 27%
    21:00 +24°C° 0 mm 10 m/s 721 mmHg 32%
    22:00 +22°C° 0 mm 9 m/s 721 mmHg 37%
    23:00 +21°C° 0 mm 9 m/s 721 mmHg 42%
    Arată mai mult